Les vidéos Equidia

Discipline Date Nom de la Course Hippodrome Alloc Jockey/Driver Red. Km Dist Corde Ferrure Autostart Class Video
Attelé 2019-07-05 EIFFAGE ROUTE FEURS 26.000 euros J. BOILLEREAU 1'14"70 2850 G 05
Attelé 2019-06-26 BOIS DU BOUC VICHY 32.000 euros M. DAOUGABEL 1'14"80 2950 D 07
Attelé 2019-05-21 VERDON MARSEILLE-BORELY 25.000 euros L. FRESNEAU 1'14"70 3000 G 06
Attelé 2019-04-26 ROUSSILLON LYON LA SOIE 37.000 euros J. BOILLEREAU 1'15"40 2700 D 01
Attelé 2019-03-31 OUESSANT LYON-PARILLY 32.000 euros S. PELTIER 1'16"00 2850 G 06
Attelé 2019-03-15 BY MY CAR SAINT GALMIER 23.000 euros TH. LEMOINE 1'12"40 2000 D A 05
Attelé 2019-02-25 LOUIS MARCHAND CHATILLON/CHALARONNE 20.000 euros S. PELTIER 1'17"92 2675 G 03
Attelé 2019-02-13 ARBOIS TOULOUSE 25.000 euros F. CLOZIER 1'17"20 2950 D 14
Attelé 2019-01-09 FANDANGO CAGNES-SUR-MER 31.000 euros S. CINGLAND 1'16"20 2925 G 10
Attelé 2018-12-15 FLORESTAN CAGNES-SUR-MER 31.000 euros N. MOUROT 1'15"10 2925 G 05
Attelé 2018-12-05 JEAN-LUC MICHEL MARSEILLE PONT DE VIVAUX 22.000 euros S. CINGLAND 1'16"70 2650 G 02
Attelé 2018-11-04 LOUIS DELAYE CAVAILLON 25.000 euros S. CINGLAND 1'15"60 2600 D 05
Attelé 2018-10-10 VENDEE LYON-PARILLY 35.000 euros J. BOILLEREAU 1'16"20 2850 G 07
Attelé 2018-10-01 CHAMBRE D'AGRIC SAINT GALMIER 34.000 euros G.R. HUGUET 1'15"70 2600 D A 10
Attelé 2018-09-23 HIPPO. EN FETE LYON-PARILLY 26.000 euros G.R. HUGUET 1'17"20 2850 G 07
Attelé 2018-07-06 SEVAL TP CHAZEL FEURS 24.000 euros B. CLAIRET 1'15"90 2850 G 03
Attelé 2018-05-02 REST.CARRE SUD SAINT GALMIER 35.000 euros P. CALLIER 1'16"10 2650 D 04
Attelé 2018-04-23 DE GIGNAC MARSEILLE-BORELY 25.000 euros P. CALLIER 1'13"90 2300 G A 07
Attelé 2018-04-05 DE L'OCCIDENT LYON-PARILLY 28.000 euros P. CALLIER 1'15"50 2850 G 04
Attelé 2018-03-19 AUGUSTIN GENY CHATILLON/CHALARONNE 25.000 euros J. CUOQ 1'18"81 2675 G 01
Attelé 2018-03-11 MONACO-MATIN CAGNES-SUR-MER 34.000 euros S. CINGLAND 1'14"90 2925 G 04
Attelé 2018-01-14 CERAN-MAILLARD CAGNES-SUR-MER 8.000 euros MME C. HUGUET 1'17"70 2925 G 04
Attelé 2017-11-21 PROVENCE LYON-PARILLY 35.000 P. CALLIER 2850 G
Attelé 2017-11-10 L'ESCARGOT D'OR SAINT GALMIER 32.000 I. BENAKMOUME 2650 D 13
Attelé 2017-10-01 PARAY-LE-MONIAL PARAY-LE-MONIAL 38.000 P. CALLIER 2625 D 01
Attelé 2017-09-21 DES PYRENEES LYON LA SOIE 20.000 P. CALLIER 2700 D 01
Attelé 2017-09-08 URANIE LYON LA SOIE 32.000 J. HUGUET 2700 D AI
Attelé 2017-08-27 ROBERT BOUNIEUX CAVAILLON 18.000 G.R. HUGUET 1'16"50 2600 D 03
Attelé 2017-06-27 GARUMNA PARIS-VINCENNES 14.000 P.M. ALLAIS 1'15"50 2100 G A 10
Attelé 2017-05-21 LA NIEVRE LYON-PARILLY 22.000 D. LOCQUENEUX 1'16"50 2850 G 10
Attelé 2017-05-08 MANCHE OCEAN Hippodrome de VANNES 32.000 TH. LARDILLIER 3200 D 11
Attelé 2017-04-25 ASPORINA PARIS-VINCENNES 14.000 P.M. ALLAIS 1'16"50 2850 G 03
Attelé 2017-04-17 SELLERIE DOGON CHERBOURG 6.000 P.M. ALLAIS 1'14"20 2550 G A 03
Attelé 2017-04-02 PMU LE SULKY REIMS 21.000 S. DIEUDONNE 1'16"70 2600 D 03
Attelé 2017-03-12 RENE JULIEN MACHECOUL(Chaumes) 32.000 TH. LARDILLIER 2700 G AI
Attelé 2017-03-01 GROS HORLOGE MAUQUENCHY 6.000 P.M. ALLAIS 1'18"00 2850 G 02
Attelé 2017-01-04 SAINT-BRIEUC PARIS-VINCENNES 14.000 P.M. ALLAIS 1'14"40 2100 G A 05
Attelé 2016-12-18 AMATEURS OUEST ANGERS EVENTARD 6.000 M. POIRIER 1'11"80 2350 D A 08
Attelé 2016-10-30 DES AMATEURS CORDEMAIS 6.000 I. JUBLOT 2825 G
Attelé 2016-09-06 BADENIA PARIS-VINCENNES 14.000 P.M. ALLAIS 1'14"40 2100 G A 03
Attelé 2016-08-22 C. DE COMMUNES CRAON 4.000 I. JUBLOT 2775 D 03
Attelé 2016-07-24 RENAULT SCAUTO GRAIGNES 35.000 D. LOCQUENEUX 2700 G PG
Attelé 2016-07-09 ST SEBASTIEN NANTES 24.000 F. LECANU 1'16"10 3000 G 03
Attelé 2016-06-25 GRAIGNES GRAIGNES 30.000 F. LECANU 1'15"50 2700 G 02
Attelé 2016-06-14 ROSALIA PARIS-VINCENNES 14.000 P.M. ALLAIS 1'14"90 2100 G A 03
Attelé 2016-06-01 BLONVILLE CAEN 21.000 D. LOCQUENEUX 1'14"20 2200 D A 05
Attelé 2016-05-24 VIRE PARIS-VINCENNES 14.000 P.M. ALLAIS 1'15"50 2100 G A 03
Attelé 2016-05-19 MAISON PRESSE CHARTRES 21.000 TH. LARDILLIER 1'15"70 2800 G 09
Attelé 2016-04-21 ELAN IV ENGHIEN 13.000 P.M. ALLAIS 1'17"10 2150 G A 05
Attelé 2016-04-12 BAVARIA PARIS-VINCENNES 14.000 A.J. GAUCHET 1'14"70 2100 G A 07
Attelé 2016-04-06 ANJOU TEXTILE ANGERS EVENTARD 6.000 A.J. GAUCHET 1'19"70 2350 D A 04
Attelé 2015-10-25 CHARTRES METROP CHARTRES 25.000 B. PITON 2800 G AI
Attelé 2015-10-12 SAINT-MAMET ENGHIEN 13.000 CH. ROSZAK 1'16"30 2875 G 01
Attelé 2015-09-18 D'ASNELLES CAEN 22.000 TH. LARDILLIER 2450 D
Attelé 2015-08-15 TRANCHE-SUR-MER LES SABLES D'OLONNE 17.000 TH. LARDILLIER 1'15"80 2650 G A 06
Attelé 2015-08-10 SEINE MARITIME DIEPPE 32.000 F. LECANU 2550 D AI
Attelé 2015-07-25 D'ETAIN ENGHIEN 45.000 D. THOMAIN 2875 G AI
Attelé 2015-07-16 F.R. LE VEXIER SAINT MALO 24.000 TH. LARDILLIER 1'18"00 2950 D 07
Attelé 2015-07-05 CREDIT MUTUEL SABLE SUR SARTHE 20.000 M. HOUAL 2825 G 03
Attelé 2015-06-27 MULSANNE DU MANS 17.000 M. HOUAL 1'16"50 2950 G 03
Attelé 2015-05-06 GERARD POIVERT MAUQUENCHY 22.000 TH. LARDILLIER 1'17"10 2850 G 10
Attelé 2015-05-01 GELINOTTE LAVAL 18.000 TH. LARDILLIER 2875 G AI
Attelé 2015-04-03 CEPHENS PARIS-VINCENNES 50.000 D. LOCQUENEUX 1'17"10 2850 G 06
Attelé 2015-03-21 TENDANCE OUEST GRAIGNES 18.000 M. HOUAL 1'16"90 2725 G 04
Attelé 2015-02-22 INSERT GEDE NANTES 20.000 TH. LARDILLIER 3000 G AI
Attelé 2014-10-26 JOUR DE VEINE BORDEAUX-LE BOUSCAT 17.000 D. LOCQUENEUX 2550 A
Attelé 2014-10-02 BUTTES CHAUMONT ENGHIEN 40.000 CEDRIC TERRY 2150 A 05
Attelé 2014-09-08 DE DENAIN PARIS-VINCENNES 42.000 D. LOCQUENEUX 1'15"50 2700 03
Attelé 2014-08-29 LABEL EQUURES CABOURG 24.000 D. LOCQUENEUX 2850 02
Attelé 2014-08-15 EGLANTINES CABOURG 26.000 TH. LARDILLIER 2850
Attelé 2014-07-24 LEA NATURE CHATELAILLON 20.000 TH. LARDILLIER 1'16"10 2625 03
Attelé 2014-07-04 GUEMENE-PENFAO PORNICHET 22.000 TH. LARDILLIER 2725 AI
Attelé 2014-06-06 BACQUEVILLE MAUQUENCHY 20.000 TH. LARDILLIER 1'15"90 2850 03
Attelé 2014-05-19 DE JORT CAEN 20.000 TH. LARDILLIER 2200 A
Attelé 2014-04-21 COCA-COLA MAURE DE BRETAGNE 20.000 TH. LARDILLIER 2850 AI
Attelé 2014-03-16 TEMPLE BRETAGNE CORDEMAIS 20.000 TH. LARDILLIER 2150
Attelé 2014-02-19 M.BENZ ALLIAN-B VIRE 20.000 TH. LARDILLIER 1'18"10 2800 07